Temp
10 12 11 11 13 12 12 13 13 15 16 16 15 16 15 15 13 13 16 17 15 16 18 18 19 20 20 19 19 19 19 19 19 19 19 18 19 19 19 19 19 19 20 20
11 12 11 13 13 13 13 13 13 15 16 15 16 16 17 17 15 15 16 18 14 15 16 15 16 17 18 19 19 19 19 19 19 19 19 18 19 19 19 19 19 18 18 18
10 13 12 13 14 13 12 12 13 15 15 15 15 15 16 17 17 16 16 15 14 14 14 13 13 15 16 17 18 19 19 19 19 19 18 18 18 18 18 18 18 18 18 18
11 13 13 13 13 13 13 14 14 15 14 13 15 14 14 17 16 15 17 16 14 14 13 13 12 13 15 16 17 17 18 18 18 19 19 18 18 17 17 17 17 17 18 18
10 12 12 12 13 14 14 14 14 14 12 13 13 12 14 14 14 17 18 15 13 13 12 12 12 13 14 14 15 15 16 16 16 17 17 17 17 17 17 16 16 16 16 17
11 11 11 12 11 14 13 13 12 11 11 12 12 12 13 14 15 15 15 15 15 12 11 11 13 12 12 13 13 14 14 14 14 15 15 15 15 15 15 15 15 15 15 15
10 11 11 11 11 12 13 13 10 10 12 12 11 11 15 15 14 14 15 14 12 12 10 10 10 10 11 12 13 13 13 13 13 13 13 13 13 13 13 12 12 13 13 13
11 12 10 11 11 12 12 12 10 11 11 10 10 11 14 14 14 14 14 13 11 9 9 9 9 10 11 12 12 12 12 12 11 11 11 11 11 11 11 10 10 11 11 11
9 10 10 11 11 11 10 10 11 10 8 7 10 10 12 12 12 12 12 11 10 9 9 9 9 10 10 11 11 11 11 10 10 10 10 10 10 10 10 9 9 9 9 9
11 9 11 10 12 11 12 11 11 9 10 10 10 10 12 14 14 13 12 10 9 9 9 8 8 9 10 10 10 10 10 10 9 9 8 8 8 8 8 8 8 8 8 8
10 10 10 11 10 12 11 11 10 10 9 9 11 12 10 13 13 11 11 10 9 9 9 8 7 9 9 9 9 9 9 9 8 8 8 8 7 7 7 7 7 7 7 7
11 9 8 11 11 12 12 13 12 12 11 7 6 13 13 11 10 9 10 10 10 10 8 7 7 8 8 8 8 8 8 8 7 7 7 6 6 6 6 5 5 5 5 5
10 8 9 10 11 11 10 11 12 10 9 6 11 12 12 11 11 11 10 10 10 9 8 7 6 6 7 7 7 7 7 7 6 6 6 5 4 4 4 4 3 3 3 3
13 10 10 10 11 10 11 10 11 11 11 12 10 11 13 14 13 12 11 10 9 9 9 7 6 7 7 7 7 7 6 6 6 5 5 4 3 3 2 2 2 1 1 2
12 10 10 10 11 10 9 10 11 10 12 11 11 11 13 14 13 12 11 10 9 9 8 8 7 6 7 6 6 6 6 5 5 4 4 3 2 2 2 2 1 1 1 1
9 9 7 6 10 9 9 9 9 10 11 11 12 12 13 13 12 11 11 11 11 10 9 8 7 6 6 6 6 6 5 5 4 4 3 2 2 2 1 1 1 1 1 1
8 8 7 8 9 9 8 10 10 9 9 11 11 12 13 12 12 12 11 10 11 11 10 8 8 7 7 7 7 6 5 5 4 3 2 1 1 1 1 0 0 0 0 0
7 7 7 7 8 8 10 12 11 10 11 10 11 12 12 12 12 12 10 11 10 11 10 9 8 8 8 7 6 6 4 4 3 2 1 1 1 0 -0 -0 -0 -0 -0 -0
9 8 9 9 8 8 11 10 9 9 11 10 11 12 12 11 12 12 10 10 10 9 9 10 10 9 7 7 6 5 3 3 2 2 1 1 1 0 -0 -1 -1 -1 -0 -1
8 9 11 7 9 8 10 12 10 11 9 12 10 9 9 9 10 11 11 9 9 9 10 9 9 8 7 6 5 4 3 2 2 2 1 1 0 -0 -1 -1 -1 -1 -1 -1
9 9 9 9 9 9 9 10 10 11 11 11 11 9 8 8 10 10 8 8 8 7 7 7 7 7 6 5 4 3 2 2 2 2 1 0 0 -0 -1 -1 -2 -2 -2 -1
9 8 9 9 9 9 9 10 11 10 11 11 11 10 8 9 9 9 7 6 5 5 5 6 6 5 5 5 4 3 2 3 2 1 1 0 -0 -0 -1 -1 -2 -2 -2 -1
9 9 8 8 9 10 9 11 11 10 10 12 12 11 9 9 9 8 7 5 5 5 5 5 5 4 4 4 4 3 3 2 1 1 0 -0 -0 -1 -1 -2 -2 -2 -2 -1
9 8 9 9 11 9 9 9 9 11 11 12 12 11 10 10 8 7 6 5 5 5 5 5 4 3 2 3 3 3 2 1 1 0 0 -0 -0 -1 -1 -2 -1 -1 -1 -1
7 8 8 8 9 9 10 9 10 9 10 11 10 10 10 10 9 8 7 6 5 5 5 5 4 3 3 3 2 2 2 0 -0 0 0 -0 -0 -1 -1 -1 -1 -1 0 0
7 8 8 9 9 10 11 12 9 9 9 9 9 9 9 9 9 8 8 7 6 5 5 4 4 4 3 3 2 2 1 1 0 0 -0 -0 0 -0 -1 -1 -1 -1 -0 0
Height
793 792 792 799 794 799 804 806 808 803 800 807 812 810 811 813 819 814 804 800 800 798 794 794 795 795 796 799 801 804 807 810 813 815 817 820 820 822 823 824 826 827 828 828
792 787 793 794 795 798 801 805 808 803 800 804 805 806 803 802 804 808 803 794 797 795 796 796 795 795 795 797 799 802 804 807 810 812 814 816 817 818 820 821 822 823 824 825
795 787 790 793 796 801 806 809 810 807 804 806 805 806 801 793 794 796 795 791 793 795 795 797 797 795 795 797 798 801 803 806 808 809 811 813 815 815 816 817 818 819 819 820
795 789 792 797 800 802 805 802 805 806 812 818 804 813 801 789 789 789 782 784 788 790 792 794 797 796 795 796 798 799 802 804 806 807 809 810 811 812 813 814 814 815 816 816
801 791 796 800 798 797 804 799 803 807 817 815 814 821 795 791 790 773 774 782 786 787 788 791 794 796 795 796 798 799 801 803 805 806 807 807 808 809 810 811 812 812 813 813
798 798 799 801 803 799 802 805 811 820 824 822 817 819 801 789 781 775 774 773 773 780 783 787 792 795 796 797 798 799 801 803 805 806 807 807 808 808 809 809 810 810 811 811
799 803 803 802 805 803 804 808 832 838 823 820 817 823 785 779 773 773 770 771 772 775 780 782 787 791 794 796 798 799 801 803 805 806 807 807 808 809 809 809 809 809 809 809
796 801 805 804 803 805 808 811 829 823 828 828 822 812 782 771 769 768 766 768 771 775 777 780 783 788 791 794 797 798 800 803 805 806 806 807 808 809 809 809 809 809 808 808
809 806 805 803 804 806 814 819 816 827 847 855 814 798 780 772 773 770 769 769 770 772 774 778 782 786 790 793 795 797 799 802 804 805 806 807 807 808 808 808 808 807 807 807
796 814 802 806 802 808 805 812 817 830 829 826 811 810 790 769 764 769 769 771 771 771 776 779 782 786 790 793 795 797 798 801 803 805 805 806 807 807 807 807 807 807 806 805
798 801 808 804 805 800 807 808 814 816 827 830 814 794 780 770 768 769 768 767 770 773 775 781 785 787 790 794 795 797 798 800 802 804 805 805 806 806 806 806 807 807 806 805
791 804 815 797 798 796 795 798 803 805 813 837 850 784 769 773 775 772 768 766 768 771 776 781 784 787 790 792 795 797 798 799 801 803 804 805 805 805 806 806 806 806 806 805
789 805 809 800 802 799 801 797 796 806 821 841 807 780 768 770 768 766 769 767 768 772 777 781 784 787 790 792 792 795 798 799 800 802 803 804 804 805 805 806 806 806 806 805
779 792 795 799 789 794 793 796 793 798 796 789 792 784 769 764 765 766 767 768 770 771 774 780 783 786 787 789 792 792 796 798 799 801 802 803 804 806 807 807 807 807 806 807
778 790 791 786 785 791 792 788 789 792 786 788 779 778 769 761 759 761 763 766 771 773 773 776 779 783 785 788 790 792 793 795 798 800 802 803 803 805 806 807 808 808 808 809
783 789 799 805 782 789 790 789 790 784 781 776 773 762 761 759 761 760 759 760 761 765 768 771 775 779 781 784 786 788 791 794 797 798 801 802 802 804 805 806 809 808 808 809
785 793 804 799 789 789 796 774 774 775 772 766 771 749 756 754 754 752 756 757 757 759 762 766 769 772 776 779 781 784 789 793 795 798 800 801 803 804 804 806 808 809 810 809
785 790 799 804 797 804 766 754 758 763 755 761 755 747 747 745 746 747 749 751 753 755 758 761 764 768 772 776 779 783 788 791 794 797 798 800 802 803 804 805 807 810 810 810
772 782 785 786 796 783 753 755 761 762 750 748 747 739 741 744 743 742 742 744 745 749 751 755 759 763 767 772 776 780 785 788 792 794 796 799 800 800 802 804 807 810 811 811
774 771 767 797 787 787 760 746 750 751 759 737 743 743 744 747 748 740 737 740 742 745 748 751 756 760 765 769 774 778 782 786 789 792 794 795 797 798 800 804 807 810 811 812
772 773 771 778 772 769 755 750 752 755 752 738 738 739 741 744 739 737 736 739 741 744 748 751 755 759 763 768 772 776 780 783 786 789 791 793 795 798 801 804 805 809 812 811
759 770 766 774 768 768 746 749 752 744 737 735 735 734 737 736 736 737 739 742 744 746 749 752 755 759 763 767 770 773 777 780 783 786 788 791 794 797 799 803 805 807 810 811
755 752 760 760 754 740 742 738 736 738 738 733 732 732 734 737 738 739 741 743 745 746 750 753 756 760 763 766 768 771 775 778 781 785 787 790 792 795 799 801 804 805 808 809
747 747 748 748 736 741 740 738 736 733 734 732 731 731 733 733 736 738 741 745 747 748 750 753 757 761 763 764 767 770 773 776 779 782 785 787 790 794 797 799 801 803 805 806
753 746 746 748 739 737 732 733 729 730 731 732 732 732 733 733 736 737 740 743 746 747 750 752 755 758 761 762 764 768 771 774 777 779 782 785 788 791 793 796 798 800 801 802
745 741 741 739 729 728 727 723 726 729 729 731 732 734 735 734 736 736 738 739 742 744 746 750 751 755 758 759 762 765 768 770 773 776 779 782 785 787 791 794 796 798 799 800
Wind_Speed
6 4 10 4 3 5 6 5 6 3 4 9 12 8 14 13 8 16 20 14 10 8 6 8 8 10 11 10 14 18 17 19 18 19 19 20 22 23 25 25 23 20 20 21
4 6 7 7 3 5 6 5 2 1 2 6 8 10 9 16 15 20 21 20 9 6 3 5 8 10 10 10 9 10 12 16 20 20 19 17 15 21 27 25 25 25 25 22
1 4 8 6 4 5 2 6 3 2 2 1 4 6 8 8 7 11 14 11 6 9 8 6 10 13 12 11 11 9 9 9 9 9 12 15 17 17 16 17 16 15 16 19
1 2 11 7 4 5 2 3 5 2 3 3 1 4 6 12 13 10 17 15 11 9 6 5 8 10 11 10 9 8 8 7 7 9 10 10 10 11 11 12 12 10 11 12
2 6 9 5 4 3 2 2 4 3 3 3 2 2 4 3 8 20 16 9 9 9 9 9 12 13 12 11 9 8 6 5 3 4 6 9 11 11 11 9 9 8 8 8
2 1 3 3 3 3 4 5 6 4 2 2 7 6 4 6 7 5 6 10 12 11 9 8 14 14 13 12 12 11 9 7 5 4 3 2 3 4 6 5 6 8 8 7
4 3 1 2 6 3 4 3 1 2 1 5 3 5 11 4 7 7 8 8 9 7 9 11 11 16 16 14 13 11 9 9 6 4 4 3 3 2 2 1 0 1 2 4
3 4 4 1 2 5 4 6 4 5 4 4 1 7 5 5 6 8 8 6 6 8 8 10 12 18 18 15 12 11 9 7 5 4 3 3 2 1 1 1 1 1 2 3
3 2 2 1 2 1 4 3 4 4 2 3 4 7 8 7 9 8 8 5 7 9 11 10 12 18 16 14 11 10 9 7 6 5 4 3 3 2 1 1 1 2 3 3
4 4 1 2 1 3 1 5 2 2 2 4 5 5 6 6 7 5 8 8 6 6 6 7 10 17 14 13 12 11 9 8 7 5 4 4 3 2 1 1 2 3 3 4
5 3 2 6 5 6 3 3 1 3 4 4 3 5 6 5 7 8 8 7 7 7 9 7 9 14 14 13 12 12 10 9 8 5 4 3 2 1 1 2 2 3 3 3
6 4 4 4 1 2 4 3 5 3 4 1 3 9 3 6 8 7 7 6 7 7 7 7 12 15 15 14 13 11 10 9 8 6 4 3 3 2 2 2 2 3 3 3
6 1 3 1 1 0 5 6 8 3 2 7 3 6 0 4 6 4 7 7 7 7 8 7 9 12 16 15 15 12 10 9 8 7 5 5 4 4 4 4 4 4 4 4
5 3 5 7 5 5 6 9 13 12 7 8 15 9 6 5 5 5 5 6 7 9 9 7 6 10 16 17 15 14 12 10 9 8 7 6 5 3 2 1 2 3 6 7
5 5 5 5 4 4 6 9 14 19 18 12 1 14 13 13 6 6 7 7 7 7 9 10 9 9 16 17 16 14 12 11 10 9 8 8 6 4 2 3 3 4 6 7
3 2 2 3 2 6 5 8 12 19 21 22 23 27 14 9 5 5 9 9 11 10 10 9 8 12 17 21 20 18 15 14 12 10 9 8 6 5 5 5 6 8 10 11
7 5 3 4 3 4 6 15 16 8 8 19 19 26 3 6 10 8 8 10 12 11 11 10 12 15 19 24 22 20 17 15 13 12 11 9 7 7 8 9 9 10 11 13
5 6 3 2 2 3 7 2 5 13 15 14 13 13 9 10 8 6 8 10 10 8 8 8 11 17 21 22 21 19 18 17 15 13 12 10 9 9 10 11 11 12 12 13
6 4 3 3 3 6 9 2 5 7 6 11 19 20 14 4 2 5 7 8 11 9 6 11 17 18 19 21 22 21 19 17 15 14 12 11 11 12 12 12 13 13 12 13
3 2 5 3 4 5 5 2 4 3 5 2 5 11 7 6 7 6 4 6 7 10 12 13 15 16 19 21 22 22 20 18 16 14 13 12 12 14 15 14 14 14 15 14
4 3 7 5 4 6 8 6 4 2 5 2 3 6 6 6 6 3 4 4 6 8 11 13 16 19 20 21 22 21 19 18 14 12 13 13 13 14 14 14 15 16 16 13
8 7 4 3 4 7 6 4 6 5 3 2 3 3 5 4 4 2 4 5 5 7 11 14 15 14 16 20 21 19 18 14 13 12 13 14 14 15 16 16 16 17 14 12
4 6 5 7 6 3 6 5 4 3 3 3 2 0 5 5 3 3 4 6 5 10 10 10 12 13 14 17 19 19 16 15 15 14 15 15 16 17 17 18 17 15 14 11
3 3 3 3 5 7 7 5 5 4 4 2 1 2 4 5 6 5 5 5 5 9 12 13 14 14 15 17 18 16 16 15 15 16 17 18 19 19 18 17 17 16 15 13
4 3 6 3 6 5 6 7 5 6 4 3 2 1 2 5 4 4 4 5 7 11 12 16 17 16 18 18 17 17 17 16 17 19 19 20 20 19 19 19 19 18 15 14
4 6 5 6 7 5 6 3 4 7 6 6 5 3 2 2 3 2 2 5 8 10 12 14 16 16 16 16 18 19 18 16 19 19 20 22 22 21 19 19 18 17 15 14
Wind_Direction
230 169 192 140 139 147 123 111 140 196 201 184 196 204 174 179 194 274 275 267 251 234 268 271 235 208 195 193 205 214 212 215 220 222 227 234 237 241 243 244 249 253 257 255
292 171 153 145 178 117 140 120 118 318 141 166 184 205 215 183 188 212 247 257 257 267 256 258 201 189 189 190 182 182 197 212 220 225 230 237 247 250 252 254 259 258 258 259
273 137 140 136 144 97 58 127 143 121 31 53 147 250 226 231 222 204 228 233 229 229 217 228 215 190 174 170 170 174 180 188 198 210 224 235 243 247 252 253 261 268 266 262
71 197 145 148 120 126 104 140 139 134 77 222 232 278 244 227 225 221 233 232 231 219 197 193 212 182 172 165 165 170 179 196 217 233 239 241 245 250 254 257 258 256 261 261
243 154 141 139 165 130 187 69 127 112 97 25 310 306 252 204 238 237 245 223 228 208 192 188 195 182 163 157 153 151 151 158 180 232 247 253 254 257 261 262 262 261 262 266
68 74 60 139 84 95 145 70 54 59 86 257 225 187 254 210 219 244 229 230 214 190 191 172 176 163 148 145 142 142 140 129 127 123 130 180 225 247 253 261 264 264 261 267
34 40 54 102 86 37 91 84 44 3 219 232 337 251 247 234 243 222 235 235 225 191 178 162 161 165 155 149 142 141 138 127 128 126 120 112 112 124 138 136 190 269 265 265
168 169 172 121 136 169 143 171 160 194 198 242 298 228 245 244 266 244 245 225 201 190 170 169 165 163 159 152 150 147 144 138 141 140 133 137 148 153 147 172 210 267 274 286
138 83 93 360 93 36 172 173 150 92 15 37 244 297 281 274 269 279 282 264 216 186 172 165 150 160 155 153 152 152 146 141 147 143 134 132 137 153 164 339 326 319 316 302
193 103 244 134 172 54 116 164 108 92 220 259 281 272 236 287 281 274 256 234 226 156 138 141 149 157 157 155 151 151 150 150 149 147 141 128 116 104 72 354 322 321 326 327
159 117 144 146 197 169 150 193 132 124 161 195 283 263 225 233 263 289 267 211 176 164 154 151 154 160 158 157 155 153 153 154 154 159 154 149 130 85 41 14 6 351 343 336
197 128 172 188 54 293 189 213 173 210 200 218 146 259 224 241 268 275 257 184 158 163 156 153 159 162 163 163 165 166 165 164 164 164 162 155 141 123 90 55 35 20 4 1
188 188 117 158 340 194 209 201 224 114 116 203 194 260 231 308 322 258 206 179 168 151 153 156 158 170 177 176 174 174 176 172 170 170 167 150 131 117 97 80 79 80 66 61
125 164 180 187 189 144 194 200 205 205 233 233 234 283 293 285 273 248 206 195 178 171 167 169 173 187 187 186 183 177 179 182 178 175 168 154 133 118 108 93 71 92 88 85
159 210 189 254 215 178 198 212 209 218 230 234 190 234 238 266 261 234 223 186 177 184 177 186 184 188 190 191 189 186 184 183 184 179 174 164 151 167 169 164 150 137 126 117
152 237 114 296 265 212 237 212 211 221 229 243 247 263 245 265 271 226 211 204 193 195 198 194 185 186 191 195 193 190 187 188 189 184 180 169 165 169 167 155 151 139 126 120
154 144 111 263 357 348 297 230 215 202 211 222 237 243 200 246 238 233 212 192 202 206 201 193 195 194 193 199 197 193 191 190 189 187 179 173 174 171 167 162 151 140 135 129
147 136 125 205 50 275 237 227 199 217 240 218 238 241 214 226 226 229 202 203 208 207 200 195 185 192 202 200 196 190 187 186 186 184 179 181 180 176 169 160 155 151 145 136
158 144 146 194 206 295 298 224 178 179 271 217 229 251 249 233 159 256 214 208 210 202 192 206 205 199 192 190 188 183 181 184 186 186 188 192 188 181 175 169 166 165 160 149
114 41 191 151 195 242 248 258 190 151 287 238 216 250 229 157 221 239 223 192 184 189 190 177 178 178 182 184 184 182 184 187 193 195 199 197 193 187 178 178 174 172 163 153
157 163 211 193 220 276 246 234 147 142 238 266 231 256 195 192 218 223 127 119 147 153 157 161 164 172 182 180 183 185 187 196 196 196 198 194 191 188 187 183 177 174 173 163
171 173 182 165 219 265 175 85 177 221 288 255 290 277 189 199 170 98 117 132 133 131 138 153 157 167 178 183 185 188 196 197 193 194 194 192 190 188 185 186 184 184 186 182
191 183 179 179 208 233 206 210 217 191 243 294 308 38 179 170 189 152 148 152 154 150 151 161 167 171 182 189 195 193 199 189 187 192 195 193 191 192 193 191 187 184 188 193
267 168 172 107 244 227 238 255 235 205 229 266 359 122 160 161 167 155 148 157 152 163 162 174 175 180 190 196 202 210 200 196 194 198 199 196 196 196 199 202 197 200 204 208
246 165 169 261 279 304 260 233 228 209 204 151 96 78 116 120 143 146 166 174 186 177 182 187 189 195 207 201 203 203 201 201 198 201 201 202 204 204 204 203 207 216 225 228
201 208 168 216 212 179 239 245 184 187 190 178 147 123 83 96 140 146 210 208 197 194 194 203 208 211 211 205 205 203 207 207 203 199 205 208 208 208 210 216 222 227 234 237